TimeEDT,TemperatureF,Dew PointF,Humidity,Sea Level PressureIn,VisibilityMPH,Wind Direction,Wind SpeedMPH,Gust SpeedMPH,PrecipitationIn,Events,Conditions,WindDirDegrees,DateUTC
12:53 AM,68.0,57.9,70,30.02,10.0,SSW,4.6,-,N/A,,Clear,210,2013-05-16 04:53:00
1:53 AM,66.0,57.9,75,30.01,10.0,Calm,Calm,-,N/A,,Clear,0,2013-05-16 05:53:00
2:53 AM,66.0,57.9,75,30.00,10.0,Calm,Calm,-,N/A,,Clear,0,2013-05-16 06:53:00
3:53 AM,62.1,57.9,86,29.99,10.0,SSW,4.6,-,N/A,,Clear,210,2013-05-16 07:53:00
4:53 AM,61.0,57.9,90,30.00,10.0,SSW,4.6,-,N/A,,Clear,210,2013-05-16 08:53:00
5:53 AM,61.0,57.0,87,30.00,10.0,SW,3.5,-,N/A,,Clear,220,2013-05-16 09:53:00
6:53 AM,61.0,57.9,90,30.02,8.0,Calm,Calm,-,N/A,,Clear,0,2013-05-16 10:53:00
7:53 AM,64.0,59.0,84,30.04,10.0,SW,4.6,-,N/A,,Clear,230,2013-05-16 11:53:00
8:53 AM,71.1,60.1,68,30.05,10.0,WSW,6.9,-,N/A,,Clear,250,2013-05-16 12:53:00
9:53 AM,75.0,61.0,62,30.06,10.0,West,6.9,-,N/A,,Clear,260,2013-05-16 13:53:00
11:53 AM,81.0,62.1,52,30.07,10.0,WSW,8.1,-,N/A,,Clear,250,2013-05-16 15:53:00
12:53 PM,80.1,62.1,54,30.06,10.0,WSW,8.1,-,N/A,,Clear,240,2013-05-16 16:53:00
1:53 PM,80.1,63.0,56,30.05,10.0,SW,10.4,-,N/A,,Clear,230,2013-05-16 17:53:00
2:53 PM,81.0,64.0,56,30.04,10.0,SW,8.1,-,N/A,,Clear,230,2013-05-16 18:53:00
3:53 PM,81.0,63.0,54,30.02,10.0,WSW,5.8,-,N/A,,Clear,250,2013-05-16 19:53:00
4:53 PM,82.9,63.0,51,30.01,10.0,West,9.2,-,N/A,,Clear,260,2013-05-16 20:53:00
6:53 PM,80.1,63.0,56,30.00,9.0,SW,4.6,-,N/A,,Clear,220,2013-05-16 22:53:00
7:53 PM,78.1,64.0,62,30.01,10.0,SSW,5.8,-,N/A,,Clear,210,2013-05-16 23:53:00
8:53 PM,75.0,63.0,66,30.02,10.0,SSW,4.6,-,N/A,,Clear,210,2013-05-17 00:53:00
9:53 PM,72.0,63.0,73,30.04,10.0,Calm,Calm,-,N/A,,Clear,0,2013-05-17 01:53:00
10:53 PM,70.0,63.0,78,30.05,10.0,Calm,Calm,-,N/A,,Clear,0,2013-05-17 02:53:00
11:53 PM,69.1,64.0,84,30.05,10.0,Calm,Calm,-,N/A,,Clear,0,2013-05-17 03:53:00